#timestamp,LO_Frequency,Hit 
1503007215.9,286046999.8,N
1503007235.7,286047002.0,N
1503007255.5,286047001.7,N
1503007275.4,286046999.9,N
1503007295.2,286047002.3,N
1503007315.0,286047003.5,N
1503007315.9,286047003.5,N
1503007335.8,286047003.7,N
1503007355.6,286047003.0,N
1503007375.4,286047001.7,N
1503007395.3,286047000.1,N
1503007415.1,286047001.7,N
1503007416.0,286047001.7,N
1503007435.8,286047000.0,N
1503007455.7,286047000.1,N
1503007475.5,286047002.6,N
1503007495.3,286047001.5,N
1503007515.2,286047001.6,N
1503007535.9,286047000.4,N
1503007555.7,286047001.2,N
1503007575.5,286046998.2,N
1503007595.4,286046995.0,N
1503007615.2,286046997.5,N
1503007635.0,286046997.2,N
1503007635.9,286046997.2,N
1503007655.8,286046998.4,N
1503007675.6,286047000.4,N
1503007695.4,286046999.7,N
1503007715.3,286047000.0,N
1503007735.1,286047003.6,N
1503007755.8,286047004.2,N
1503007775.7,286047003.8,N
1503007795.5,286047005.7,N
1503007815.3,286047005.9,N
1503007835.2,286047004.9,N
1503007855.9,286047009.8,P
1503007875.7,286047008.0,N
1503007895.6,286047007.4,N
1503007915.4,286047006.2,N
1503007935.2,286047007.3,N
1503007955.1,286047006.1,N
1503007956.0,286047006.1,N
1503007975.8,286047007.7,P
1503007995.6,286047003.9,P
1503008015.5,286047005.6,P
1503008035.3,286047005.9,P
1503008055.1,286046997.8,P
1503008075.9,286046995.9,N
1503008095.7,286046999.6,N
1503008115.5,286046997.9,N
1503008135.4,286046994.6,N
1503008155.2,286046994.3,N
1503008175.0,286046993.6,N
1503008175.9,286046993.6,N
1503008195.8,286046991.7,N
1503008215.6,286046991.9,N
1503008235.4,286046990.3,N
1503008255.3,286046994.3,N
1503008275.1,286046992.3,N
1503008276.0,286046992.3,N
1503008295.8,286046993.2,N
1503008315.6,286046994.0,N
1503008335.5,286046993.5,N
1503008355.3,286046997.6,N
1503008375.1,286046997.2,N
1503008395.9,286046996.7,N
1503008415.7,286047000.6,N
1503008435.5,286046998.1,N
1503008455.4,286047000.0,N
1503008475.2,286046997.6,N
1503008495.0,286046994.9,N
1503008495.9,286046994.9,N
1503008515.8,286046994.0,N
1503008535.6,286046993.6,N
1503008555.4,286046995.6,N
1503008575.3,286046998.0,N
1503008595.1,286046996.0,N
1503008596.0,286046996.0,N
1503008615.8,286046996.6,N
1503008635.7,286047000.6,N
1503008655.5,286047000.8,N
1503008675.3,286046999.6,N
1503008695.1,286046996.5,N
1503008715.9,286046996.5,N
1503008735.7,286047000.1,N
1503008755.5,286047002.2,N
1503008775.4,286047002.4,N
1503008795.2,286047002.3,N
1503008815.0,286047002.2,N
1503008815.9,286047002.2,N
1503008835.8,286047000.3,N
1503008855.6,286046998.8,N
1503008875.4,286046998.8,N
1503008895.3,286047003.3,N
1503008915.1,286047002.9,N
1503008916.0,286047002.9,N
1503008935.8,286047003.4,N
1503008955.7,286047004.1,N
1503008975.5,286047003.7,N
1503008995.3,286047003.1,N
1503009015.1,286047004.3,N
1503009035.9,286047002.9,N
1503009055.7,286047007.0,N
1503009075.5,286047006.6,N
1503009095.4,286047008.8,N
1503009115.2,286047009.0,N
1503009135.0,286047007.7,N
1503009135.9,286047007.7,N
1503009155.8,286047008.5,N
1503009175.6,286047008.7,N
1503009195.4,286047006.6,N
1503009215.3,286047009.1,N
1503009235.1,286047008.3,N
1503009236.0,286047008.3,N
1503009255.8,286047008.7,N
1503009275.7,286047008.1,N
1503009295.5,286047007.8,N
1503009315.3,286047008.5,N
1503009335.2,286047008.7,N
1503009355.9,286047007.2,N
1503009375.7,286047007.5,N
1503009395.6,286047008.8,N
1503009415.4,286047008.8,P
1503009435.2,286047000.4,N
1503009455.1,286047002.6,N
1503009456.0,286047002.6,N
1503009475.8,286047002.5,N
1503009495.6,286047001.4,N
1503009515.5,286047000.7,N
1503009535.3,286046998.1,N
1503009555.1,286046994.0,N
1503009575.8,286046989.5,N
1503009595.7,286046988.1,N
1503009615.5,286046987.7,N
1503009635.3,286046989.6,N
1503009655.2,286046989.8,N
1503009675.9,286046989.8,N
1503009695.7,286046990.1,N
1503009715.6,286046991.9,N
1503009735.4,286046992.7,N
1503009755.2,286046988.6,N
1503009775.1,286046987.8,N
1503009776.0,286046987.8,N
1503009795.8,286046983.9,N
1503009815.6,286046986.7,N
1503009835.5,286046990.4,N
1503009855.3,286046992.0,N
1503009875.1,286046994.4,N
1503009895.8,286046992.9,N
1503009915.7,286046996.0,N
1503009935.5,286046996.3,N
1503009955.3,286046992.6,N
1503009975.2,286046992.6,N
1503009995.0,286046994.2,N
1503009995.9,286046994.2,N
1503010015.7,286046994.4,N
1503010035.6,286046991.9,N
1503010055.4,286046993.4,N
1503010075.2,286046993.3,N
1503010095.1,286046995.5,N
1503010096.0,286046995.5,N
1503010115.8,286046993.8,N
1503010135.6,286046991.8,N
1503010155.5,286046993.6,N
1503010175.3,286046995.2,N
1503010195.1,286046995.0,N
1503010215.9,286046998.0,N
1503010235.7,286046997.6,N
1503010255.5,286046996.0,N
1503010275.4,286046996.1,N
1503010295.2,286046995.9,N
1503010315.0,286046995.7,N
1503010315.9,286046995.7,N
1503010335.8,286046999.4,N
1503010355.6,286046997.2,N
1503010375.4,286046998.7,N
1503010395.2,286047000.9,N
1503010415.1,286047000.0,N
1503010416.0,286047000.0,N
1503010435.8,286047001.0,N
1503010455.6,286046996.6,N
1503010475.5,286046996.8,N
1503010495.3,286046998.1,N
1503010515.1,286046998.8,N
1503010535.9,286046997.6,N
1503010555.7,286046996.3,N
1503010575.5,286046994.8,N
1503010595.4,286046992.1,P
1503010615.2,286046996.9,N
1503010635.0,286046999.6,N
1503010635.9,286046999.6,N
1503010655.8,286046996.8,N
1503010675.6,286046995.6,N
1503010695.4,286046997.4,N
1503010715.3,286046999.0,N
1503010735.1,286046996.2,N
1503010736.0,286046996.2,N
1503010755.8,286046998.0,N
1503010775.7,286046996.6,N
1503010795.5,286046997.0,N
